Date String (YYYY-MM-DD hh:mm:ss) UTC,Instrument flags,absolute air pressure of the measurement (hPa),sample flow rate (lpm),inlet stack bypass flow (lpm),air temperature of the measurement (°C),ambient temperature measured by the external sensor (°C),aerosol sample conditioner tube jacket temperature (°C),OPC LED temperature (°C),internal box temperature (°C),relative humidity of the measurement (%),span deviation,mass concentration of particles derived from Lorenz-Mie calculation of OPC scattering (μg/m³),mass concentration of particles derived from Lorenz-Mie calculation of OPC scattering (μg/m³),mass concentration of particles derived from Lorenz-Mie calculation of OPC scattering (μg/m³)
DateTimeUTC,F1_M11,P_M11,Q1_M11,Q2_M11,T1_M11,T2_M11,T3_M11,T4_M11,T5_M11,U1_M11,ZSPAN_M11,X0_M11,X2_M11,X1_M11
2024-03-27 17:00:00,SystemResetWarning,0827.7,5.00,000.00,019.6,019.2,000.0,027.9,021.4,14.1,0000.0,0004.68,0003.23,0002.65
2024-03-27 17:01:00,SystemResetWarning,0827.7,5.01,000.00,019.6,019.3,000.0,027.9,021.4,13.6,0000.0,0004.56,0003.15,0002.53
2024-03-27 17:02:00,SystemResetWarning,0827.7,5.01,000.00,019.6,019.3,000.0,027.9,021.4,13.6,0000.0,0004.46,0003.06,0002.43
2024-03-27 17:03:00,SystemResetWarning,0827.7,5.00,000.00,019.7,019.3,000.0,027.9,021.4,14.4,0000.0,0004.36,0002.98,0002.36
2024-03-27 17:04:00,SystemResetWarning,0827.7,5.00,000.00,019.7,019.3,000.0,027.9,021.4,14.5,0000.0,0004.27,0002.92,0002.32
2024-03-27 17:05:00,SystemResetWarning,0827.7,4.99,000.00,019.7,019.3,000.0,027.9,021.5,13.7,0000.0,0004.20,0002.88,0002.29
2024-03-27 17:06:00,SystemResetWarning,0827.7,4.99,000.00,019.7,019.3,000.0,028.0,021.5,13.5,0000.0,0004.02,0002.81,0002.26
2024-03-27 17:07:00,SystemResetWarning,0827.7,5.00,000.00,019.7,019.3,000.0,028.0,021.5,13.7,0000.0,0004.05,0002.83,0002.25
2024-03-27 17:08:00,SystemResetWarning,0827.7,5.00,000.00,019.7,019.3,000.0,028.0,021.5,13.3,0000.0,0003.96,0002.76,0002.24
2024-03-27 17:09:00,SystemResetWarning,0827.7,5.01,000.00,019.7,019.3,000.0,028.0,021.5,13.2,0000.0,0004.03,0002.73,0002.22
2024-03-27 17:10:00,SystemResetWarning,0827.7,5.00,000.00,019.7,019.3,000.0,028.0,021.5,13.8,0000.0,0003.87,0002.66,0002.19
2024-03-27 17:11:00,SystemResetWarning,0827.7,5.00,000.00,019.8,019.4,000.0,028.0,021.5,13.6,0000.0,0003.84,0002.65,0002.17
2024-03-27 17:12:00,SystemResetWarning,0827.7,5.00,000.00,019.8,019.4,000.0,028.0,021.5,13.4,0000.0,0003.89,0002.65,0002.16
2024-03-27 17:13:00,SystemResetWarning,0827.7,5.00,000.00,019.8,019.4,000.0,028.1,021.6,13.4,0000.0,0004.07,0002.69,0002.17
2024-03-27 17:14:00,SystemResetWarning,0827.7,5.00,000.00,019.8,019.4,000.0,028.1,021.6,12.5,0000.0,0004.37,0002.72,0002.16
2024-03-27 17:15:00,SystemResetWarning,0827.7,5.00,000.00,019.8,019.4,000.0,028.1,021.6,12.1,0000.0,0004.28,0002.67,0002.11
2024-03-27 17:16:00,SystemResetWarning,0827.7,5.00,000.00,019.8,019.4,000.0,028.1,021.6,10.8,0000.0,0004.22,0002.60,0002.02
2024-03-27 17:17:00,SystemResetWarning,0827.6,5.00,000.00,019.8,019.4,000.0,028.1,021.6,10.9,0000.0,0005.46,0002.51,0001.93
2024-03-27 17:18:00,SystemResetWarning,0827.6,5.00,000.00,019.8,019.4,000.0,028.1,021.6,11.9,0000.0,0005.43,0002.41,0001.84
2024-03-27 17:19:00,SystemResetWarning,0827.7,5.00,000.00,019.8,019.4,000.0,028.1,021.6,12.8,0000.0,0005.42,0002.34,0001.78
2024-03-27 17:20:00,SystemResetWarning,0827.7,5.00,000.00,019.9,019.4,000.0,028.1,021.6,12.8,0000.0,0005.28,0002.30,0001.74
2024-03-27 17:21:00,SystemResetWarning,0827.5,4.99,000.00,019.9,019.4,000.0,028.1,021.6,13.1,0000.0,0005.28,0002.19,0001.66
2024-03-27 17:22:00,SystemResetWarning,0827.6,4.99,000.00,019.9,019.4,000.0,028.2,021.6,13.5,0000.0,0005.67,0002.07,0001.55
2024-03-27 17:23:00,SystemResetWarning,0827.7,4.99,000.00,019.9,019.4,000.0,028.2,021.6,13.3,0000.0,0005.70,0002.04,0001.50
2024-03-27 17:24:00,SystemResetWarning,0827.7,5.00,000.00,019.9,019.4,000.0,028.2,021.6,13.3,0000.0,0005.65,0002.02,0001.47
2024-03-27 17:25:00,SystemResetWarning,0827.6,5.01,000.00,019.9,019.4,000.0,028.2,021.6,12.8,0000.0,0005.25,0001.90,0001.41
2024-03-27 17:26:00,SystemResetWarning,0827.6,5.01,000.00,019.9,019.4,000.0,028.2,021.6,11.8,0000.0,0005.04,0001.80,0001.34
2024-03-27 17:27:00,SystemResetWarning,0827.5,5.00,000.00,019.9,019.4,000.0,028.2,021.6,11.5,0000.0,0004.95,0001.74,0001.30
2024-03-27 17:28:00,SystemResetWarning,0827.5,5.00,000.00,019.9,019.4,000.0,028.2,021.6,10.9,0000.0,0003.91,0001.73,0001.29
2024-03-27 17:29:00,SystemResetWarning,0827.5,4.99,000.00,019.9,019.4,000.0,028.2,021.6,11.3,0000.0,0003.77,0001.69,0001.26
2024-03-27 17:30:00,SystemResetWarning,0827.7,5.00,000.00,019.9,019.4,000.0,028.2,021.6,11.7,0000.0,0004.28,0001.63,0001.18
2024-03-27 17:31:00,SystemResetWarning,0827.6,5.01,000.00,019.9,019.4,000.0,028.2,021.5,11.6,0000.0,0004.11,0001.54,0001.10
2024-03-27 17:32:00,SystemResetWarning,0827.5,5.00,000.00,019.9,019.4,000.0,028.2,021.5,11.1,0000.0,0004.28,0001.50,0001.06
2024-03-27 17:33:00,SystemResetWarning,0827.5,5.01,000.00,019.9,019.3,000.0,028.2,021.5,12.1,0000.0,0004.66,0001.50,0001.04
2024-03-27 17:34:00,SystemResetWarning,0827.5,5.00,000.00,019.9,019.3,000.0,028.2,021.5,11.9,0000.0,0004.63,0001.44,0000.98
2024-03-27 17:35:00,SystemResetWarning,0827.5,4.99,000.00,019.8,019.3,000.0,028.2,021.5,11.6,0000.0,0004.30,0001.30,0000.89
2024-03-27 17:36:00,SystemResetWarning,0827.5,5.00,000.00,019.8,019.3,000.0,028.2,021.5,11.7,0000.0,0004.40,0001.24,0000.82
2024-03-27 17:37:00,SystemResetWarning,0827.6,4.99,000.00,019.8,019.3,000.0,028.2,021.5,10.6,0000.0,0004.47,0001.24,0000.80
2024-03-27 17:38:00,SystemResetWarning,0827.6,5.00,000.00,019.8,019.3,000.0,028.2,021.5,11.4,0000.0,0004.60,0001.29,0000.79
2024-03-27 17:39:00,SystemResetWarning,0827.6,5.00,000.00,019.9,019.3,000.0,028.2,021.5,12.5,0000.0,0004.61,0001.30,0000.79
2024-03-27 17:40:00,SystemResetWarning,0827.5,5.01,000.00,019.9,019.3,000.0,028.2,021.5,13.8,0000.0,0004.80,0001.37,0000.86
2024-03-27 17:41:00,SystemResetWarning,0827.6,5.00,000.00,019.9,019.3,000.0,028.2,021.6,13.5,0000.0,0003.97,0001.42,0000.94
2024-03-27 17:42:00,SystemResetWarning,0827.5,5.01,000.00,019.9,019.4,000.0,028.2,021.6,12.8,0000.0,0004.08,0001.53,0001.03
2024-03-27 17:43:00,SystemResetWarning,0827.6,5.00,000.00,019.9,019.4,000.0,028.2,021.6,13.7,0000.0,0004.13,0001.61,0001.12
2024-03-27 17:44:00,SystemResetWarning,0827.7,5.00,000.00,019.9,019.4,000.0,028.2,021.6,12.6,0000.0,0002.91,0001.64,0001.17
2024-03-27 17:45:00,SystemResetWarning,0827.6,5.00,000.00,019.9,019.4,000.0,028.3,021.6,12.4,0000.0,0002.93,0001.68,0001.21
2024-03-27 17:46:00,SystemResetWarning,0827.6,5.00,000.00,019.9,019.5,000.0,028.3,021.7,11.9,0000.0,0002.94,0001.69,0001.23
2024-03-27 17:47:00,SystemResetWarning,0827.6,5.00,000.00,019.9,019.5,000.0,028.3,021.7,12.0,0000.0,0002.88,0001.72,0001.25
2024-03-27 17:48:00,SystemResetWarning,0827.5,5.00,000.00,019.9,019.5,000.0,028.3,021.7,12.4,0000.0,0002.87,0001.75,0001.26
2024-03-27 17:49:00,SystemResetWarning,0827.4,5.01,000.00,019.9,019.5,000.0,028.3,021.7,11.6,0000.0,0002.83,0001.73,0001.27
2024-03-27 17:50:00,SystemResetWarning,0827.5,5.01,000.00,019.9,019.5,000.0,028.3,021.7,12.4,0000.0,0002.81,0001.73,0001.28
2024-03-27 17:51:00,SystemResetWarning,0827.5,5.00,000.00,019.9,019.5,000.0,028.3,021.7,11.2,0000.0,0002.64,0001.67,0001.25
2024-03-27 17:52:00,SystemResetWarning,0827.6,5.00,000.00,019.9,019.4,000.0,028.3,021.7,11.4,0000.0,0002.49,0001.60,0001.17
2024-03-27 17:53:00,SystemResetWarning,0827.6,5.00,000.00,019.9,019.4,000.0,028.3,021.6,12.4,0000.0,0002.51,0001.54,0001.08
2024-03-27 17:54:00,SystemResetWarning,0827.6,5.00,000.00,019.9,019.4,000.0,028.3,021.6,12.0,0000.0,0002.39,0001.46,0001.00
2024-03-27 17:55:00,SystemResetWarning,0827.6,5.00,000.00,020.0,019.4,000.0,028.3,021.7,12.1,0000.0,0002.32,0001.39,0000.94
2024-03-27 17:56:00,SystemResetWarning,0827.6,5.00,000.00,020.0,019.5,000.0,028.3,021.7,12.8,0000.0,0004.91,0001.39,0000.93
2024-03-27 17:57:00,SystemResetWarning,0827.5,5.00,000.00,020.0,019.5,000.0,028.3,021.7,12.0,0000.0,0005.50,0001.36,0000.91
2024-03-27 17:58:00,SystemResetWarning,0827.5,5.01,000.00,020.0,019.5,000.0,028.3,021.7,12.8,0000.0,0005.47,0001.33,0000.90
2024-03-27 17:59:00,SystemResetWarning,0827.6,5.00,000.00,020.0,019.5,000.0,028.3,021.7,12.3,0000.0,0005.49,0001.30,0000.89
